Regional Weather Roundup
Issued by NWS

Home | Current Version | Previous Version | Graphics & Text | Print | Product List | Glossary On
Versions: 1 2 3 4 5 6 7 8 9 10 11 12 13 14 15 16 17 18 19 20 21 22 23 24 25 26 27
000
ASUS45 KBOI 272010
RWRID

IDAHO REGIONAL WEATHER ROUNDUP
NATIONAL WEATHER SERVICE BOISE ID
200 PM MDT TUE SEP 27 2016

NOTE: "FAIR" INDICATES FEW OR NO CLOUDS BELOW 12000 FEET
WITH NO SIGNIFICANT WEATHER AND/OR OBSTRUCTIONS TO VISIBILITY

IDZ012-014-272100-
SOUTHWEST IDAHO


CITY           SKY/WX    TMP DP  RH WIND       PRES   REMARKS
BOISE          SUNNY     78  45  30 N7        30.07F
CALDWELL       SUNNY     79  47  32 E5        30.06F
MOUNTAIN HOME  SUNNY     81  44  26 SE12      30.06F
$$

IDZ016-017-272100-
SOUTHCENTRAL IDAHO


CITY           SKY/WX    TMP DP  RH WIND       PRES   REMARKS
BURLEY         SUNNY     75  46  35 NE5       30.13F
JEROME         SUNNY     78  45  30 NE9       30.13F
TWIN FALLS     SUNNY     75  47  36 NE8       30.13F
$$

IDZ019>023-272100-
SOUTHEAST IDAHO


CITY           SKY/WX    TMP DP  RH WIND       PRES   REMARKS
IDAHO FALLS    SUNNY     72  42  34 VRB3      30.20F
POCATELLO      SUNNY     76  43  30 NW5       30.18F
REXBURG        SUNNY     70  41  34 SW5       30.20F
$$

IDZ006-010-011-018-031-032-272100-
CENTRAL IDAHO MOUNTAINS


CITY           SKY/WX    TMP DP  RH WIND       PRES   REMARKS
MCCALL         SUNNY     75  37  25 VRB6      30.17F
HAILEY         SUNNY     72  46  40 SE9       30.22F
STANLEY          N/A     75  32  20 VRB5      30.26F
SALMON         SUNNY     68  43  40 N3        30.15F
CHALLIS        SUNNY     72  37  28 CALM      30.18F
$$

IDZ002-004-006-007-026-272100-
NORTHERN IDAHO


CITY           SKY/WX    TMP DP  RH WIND       PRES   REMARKS
LEWISTON       SUNNY     82  48  30 VRB3      30.02F
LOWELL           N/A     76  52  43 N3        30.02F
COEUR D`ALENE    N/A     77  49  37 W7        30.05F
MULLAN PASS    SUNNY     64  43  46 VRB7      30.21S
$$




USA.gov is the U.S. government's official web portal to all federal, state and local government web resources and services.